Weather History for Doha, Qatar

Change the Weather History Date:

Wednesday, March 27, 2013

  Actual Average Record
Temperature  
Mean Temperature 72 °F -  
Max Temperature 83 °F 88 °F 93 °F (2008)
Min Temperature 62 °F 68 °F 62 °F (2001)
Cooling Degree Days 8    
Growing Degree Days 22 (Base 50)    
Moisture  
Dew Point 47 °F    
Average Humidity 43    
Maximum Humidity 72    
Minimum Humidity 14    
Precipitation  
Precipitation 0.00 in 0.01 in - ()
Sea Level Pressure  
Sea Level Pressure 29.94 in    
Wind  
Wind Speed 6 mph ()    
Max Wind Speed 12 mph    
Max Gust Speed -    
Visibility 7.2 miles    
Events      
Averages and records for this station are not official NWS values.
T = Trace of Precipitation, MM = Missing Value Source: Averaged Metar Reports

Daily Weather History Graph

Daily Weather History Graph

Search for Another Location

Airport:

Trip Planner

Search our weather history database for the weather conditions in past years. The results will help you decide how hot, cold, wet, or windy it might be!

Date:

Astronomy

Mar. 27, 2013 Rise Set
Actual Time 5:30 AM AST 5:48 PM AST
Civil Twilight 5:07 AM AST 6:10 PM AST
Nautical Twilight 4:40 AM AST 6:37 PM AST
Astronomical Twilight 4:13 AM AST 7:04 PM AST
Moon 5:59 PM AST (3/27) 5:10 AM AST (3/27)
Length of Visible Light 13h 03m
Length of Day
12h 17m
Full, 100% of the Moon is Illuminated
Mar 27
Full
Mar 27
Full
Apr 3
Last Quarter
Apr 10
New
Apr 18
First Quarter

Hourly Weather History & Observations

Time (AST) Temp. Dew Point Humidity Pressure Visibility Wind Dir Wind Speed Gust Speed Precip Events Conditions
12:00 AM 68.0 °F 48.2 °F 49% 29.95 in - WSW 4.6 mph - N/A   Clear
1:00 AM 66.2 °F 50.0 °F 56% 29.95 in - WSW 3.5 mph - N/A   Clear
2:00 AM 64.4 °F 50.0 °F 59% 29.92 in - WSW 4.6 mph - N/A   Clear
3:00 AM 64 °F 49 °F 49%  in 7 mi WSW 5.8 mph - -  
3:00 AM 64.4 °F 50.0 °F 59% 29.92 in - WSW 5.8 mph - N/A   Clear
3:30 AM 64.4 °F 50.0 °F 59% 29.92 in - WSW 8.1 mph - N/A   Clear
4:00 AM 64.4 °F 50.0 °F 59% 29.92 in - WSW 5.8 mph - N/A   Clear
4:30 AM 62.6 °F 51.8 °F 68% 29.95 in - WSW 6.9 mph - N/A   Clear
5:00 AM 62.6 °F 53.6 °F 72% 29.95 in - WSW 5.8 mph - N/A   Clear
6:00 AM 62.6 °F 53.6 °F 72% 29.95 in 5.6 mi WSW 4.6 mph - N/A   Unknown
6:30 AM 64.4 °F 53.6 °F 68% 29.98 in 5.6 mi WSW 8.1 mph - N/A   Unknown
7:00 AM 66.2 °F 53.6 °F 64% 29.98 in - WSW 6.9 mph - N/A   Clear
7:30 AM 68.0 °F 48.2 °F 49% 29.98 in - WSW 9.2 mph - N/A   Clear
8:00 AM 71.6 °F 46.4 °F 41% 29.98 in - West 4.6 mph - N/A   Clear
8:30 AM 73.4 °F 41.0 °F 31% 29.98 in - West 5.8 mph - N/A   Clear
9:00 AM 76 °F 36 °F 14% 30.00 in 6 mi WNW 6.9 mph - -  
9:00 AM 75.2 °F 35.6 °F 24% 29.98 in - WNW 6.9 mph - N/A   Clear
9:30 AM 78.8 °F 32.0 °F 18% 29.98 in - NW 8.1 mph - N/A   Clear
10:00 AM 80.6 °F 32.0 °F 17% 29.98 in - NNW 8.1 mph - N/A   Clear
10:30 AM 82.4 °F 33.8 °F 17% 29.98 in - North 10.4 mph - N/A   Clear
11:00 AM 82.4 °F 33.8 °F 17% 29.98 in - NNW 10.4 mph - N/A   Clear
11:30 AM 82.4 °F 35.6 °F 19% 29.95 in - NNE 10.4 mph - N/A   Clear
12:00 PM 82.4 °F 35.6 °F 19% 29.95 in - NNE 9.2 mph - N/A   Clear
12:30 PM 82.4 °F 35.6 °F 19% 29.95 in - North 11.5 mph - N/A   Clear
1:00 PM 84.2 °F 35.6 °F 18% 29.92 in - NNE 9.2 mph - N/A   Clear
1:30 PM 80.6 °F 44.6 °F 28% 29.92 in - NE 10.4 mph - N/A   Clear
2:00 PM 80.6 °F 46.4 °F 30% 29.92 in - ENE 9.2 mph - N/A   Clear
2:30 PM 78.8 °F 44.6 °F 30% 29.92 in - NE 8.1 mph - N/A   Clear
3:00 PM 80 °F 44 °F 18% 29.91 in 10 mi NE 9.2 mph - -  
3:00 PM 80.6 °F 44.6 °F 28% 29.89 in - NE 9.2 mph - N/A   Clear
3:30 PM 78.8 °F 44.6 °F 30% 29.89 in - NNE 9.2 mph - N/A   Clear
4:00 PM 78.8 °F 44.6 °F 30% 29.89 in - North 9.2 mph - N/A   Clear
4:30 PM 78.8 °F 50.0 °F 36% 29.89 in - North 9.2 mph - N/A   Clear
5:00 PM 77.0 °F 48.2 °F 36% 29.92 in - NNE 8.1 mph - N/A   Clear
5:30 PM 75.2 °F 51.8 °F 44% 29.92 in - North 5.8 mph - N/A   Clear
6:00 PM 75.2 °F 51.8 °F 44% 29.92 in - North 4.6 mph - N/A   Clear
6:30 PM 73.4 °F 53.6 °F 50% 29.92 in - NNE 3.5 mph - N/A   Clear
7:00 PM 73.4 °F 57.2 °F 57% 29.92 in - Variable 2.3 mph - N/A   Clear
7:30 PM 73.4 °F 57.2 °F 57% 29.92 in - ESE 3.5 mph - N/A   Clear
8:00 PM 71.6 °F 55.4 °F 57% 29.95 in - ESE 3.5 mph - N/A   Clear
8:30 PM 71.6 °F 55.4 °F 57% 29.95 in - ESE 3.5 mph - N/A   Clear
9:00 PM 71 °F 56 °F 50% 29.94 in 9 mi 2.3 mph - -  
9:00 PM 71.6 °F 55.4 °F 57% 29.92 in - Variable 2.3 mph - N/A   Clear
9:30 PM 71.6 °F 55.4 °F 57% 29.92 in - Variable 2.3 mph - N/A   Clear
10:00 PM 71.6 °F 55.4 °F 57% 29.92 in - SE 3.5 mph - N/A   Clear
10:30 PM 71.6 °F 55.4 °F 57% 29.92 in - SSE 3.5 mph - N/A   Clear
11:00 PM 69.8 °F 55.4 °F 60% 29.89 in - Variable 2.3 mph - N/A   Clear
11:30 PM 69.8 °F 55.4 °F 60% 29.89 in - Calm Calm - N/A   Clear